Location: Doux
(49.5045°N, 4.4321°E)
Time: 17:09:28
(UTC+00:00)

Cosmos 1782 Rocket - Pass Details

Date: 09 August 2024
Orbit: 602 x 628 km, 82.5° (Epoch: 19 September)

Event Time Altitude Azimuth Distance (km) Brightness Sun altitude
Rises 03:09:16 0° 135° (SE) 2,881 7.0 -11.1°
Reaches altitude 10° 03:12:39 10° 107° (ESE) 1,989 6.6 -10.7°
Maximum altitude 03:14:34 13° 81° (E) 1,822 6.9 -10.5°
Drops below altitude 10° 03:16:28 10° 56° (NE) 2,003 7.8 -10.2°
Sets 03:19:54 0° 28° (NNE) 2,922 8.4 -9.8°
